This demonstration page uses our WeatherBlox Daily Observations layout. Learn more.

Left ArrowRight Arrow

39.08367, -84.50855

Hourly Observations for May 23, 2019

Temp ( °F °C ) Dew Point ( °F °C ) Humidity (%) Winds ( mph kmh ) Pressure ( in mb ) Visibility ( mi km ) Precip ( " mm )
12:02 am 00:02 Mostly Cloudy with Fog 66 18.9 66 18.9 100 100 N N/A 30.04 1017 0 0 N/A
12:12 am 00:12 Mostly Cloudy with Fog 66 18.9 65 18.3 96 96 N N/A 30.03 1017 1 1 N/A
12:19 am 00:19 Mostly Cloudy with Fog 66 18.9 65 18.3 96 96 N N/A 30.03 1017 0 0 N/A
12:43 am 00:43 Mostly Cloudy with Mist and Fog 65 18.3 64 17.8 97 97 N N/A 30.04 1017 1 1 N/A
12:51 am 00:51 Mostly Cloudy with Fog 64 18 63 17 94 94 VRB 3 6 30.04 1017 1 1 N/A
12:53 am 00:53 Mostly Cloudy with Fog 65 18.3 64 17.8 97 97 VRB 3 6 30.04 1017 0 0 N/A
1:01 am 01:01 Mostly Cloudy with Fog 66 18.9 65 18.3 96 96 N N/A 30.04 1017 0 0 N/A
1:05 am 01:05 Mostly Cloudy with Mist and Fog 66 18.9 65 18.3 96 96 N N/A 30.04 1017 1 2 N/A
1:07 am 01:07 Partly Cloudy with Mist and Fog 66 18.9 65 18.3 96 96 N N/A 30.04 1017 3 4 N/A
1:14 am 01:14 Mostly Clear with Mist and Fog 66 18.9 65 18.3 96 96 N N/A 30.05 1018 4 6 N/A
1:29 am 01:29 Mostly Clear with Mist and Fog 65 18.3 64 17.8 97 97 VRB 3 6 30.05 1018 2 2 N/A
1:31 am 01:31 Mostly Cloudy with Mist and Fog 65 18.3 64 17.8 97 97 VRB 3 6 30.05 1018 1 1 N/A
1:42 am 01:42 Partly Cloudy with Mist and Fog 66 18.9 65 18.3 96 96 N N/A 30.05 1018 2 2 N/A
1:53 am 01:53 Mostly Cloudy with Mist and Fog 66 18.9 65 18.3 96 96 N N/A 30.04 1017 1 2 N/A
2:07 am 02:07 Mostly Cloudy with Fog 64 17.8 64 17.8 100 100 S 3 6 30.05 1018 0 0 N/A
2:15 am 02:15 Mostly Cloudy with Mist and Fog 63 17.2 63 17.2 100 100 N N/A 30.04 1017 1 2 N/A
2:28 am 02:28 Mostly Cloudy with Fog 65 18.3 64 17.8 97 97 N N/A 30.04 1017 0 0 N/A
2:53 am 02:53 Mostly Cloudy with Fog 64 17.8 64 17.8 100 100 N N/A 30.04 1017 0 0 N/A
3:01 am 03:01 Mostly Cloudy with Fog 63 17.2 63 17.2 100 100 N N/A 30.04 1017 1 1 N/A
3:08 am 03:08 Mostly Cloudy with Fog 64 17.8 63 17.2 96 96 N N/A 30.04 1017 1 1 N/A
3:14 am 03:14 Mostly Cloudy with Mist and Fog 63 17.2 63 17.2 100 100 N N/A 30.04 1017 2 3 N/A
3:21 am 03:21 Mostly Cloudy with Mist and Fog 64 17.8 63 17.2 96 96 N N/A 30.04 1017 1 2 N/A
3:23 am 03:23 Mostly Cloudy with Mist and Fog 64 17.8 63 17.2 96 96 N N/A 30.04 1017 1 1 N/A
3:32 am 03:32 Mostly Cloudy with Fog 64 17.8 64 17.8 100 100 N N/A 30.04 1017 0 0 N/A
3:53 am 03:53 Mostly Cloudy with Fog 63 17.2 63 17.2 100 100 VRB 5 7 30.04 1017 0 0 N/A
4:34 am 04:34 Mostly Cloudy with Mist and Fog 62 16.7 62 16.7 100 100 N N/A 30.04 1017 1 2 N/A
4:40 am 04:40 Mostly Cloudy with Fog 62 16.7 62 16.7 100 100 N N/A 30.04 1017 1 1 N/A
4:44 am 04:44 Mostly Cloudy with Fog 62 16.7 62 16.7 100 100 N N/A 30.04 1017 0 0 N/A
4:53 am 04:53 Mostly Cloudy with Mist and Fog 62 16.7 61 16.1 96 96 N N/A 30.05 1018 1 1 N/A
4:57 am 04:57 Mostly Cloudy with Mist and Fog 63 17.2 62 16.7 97 97 N N/A 30.05 1018 2 3 N/A
5:00 am 05:00 Mostly Cloudy with Mist and Fog 62 16.7 62 16.7 100 100 N N/A 30.05 1018 3 5 N/A
5:11 am 05:11 Cloudy with Mist and Fog 63 17.2 63 17.2 100 100 ESE 3 6 30.05 1018 2 3 N/A
5:15 am 05:15 Cloudy with Mist and Fog 63 17.2 63 17.2 100 100 N N/A 30.06 1018 3 5 N/A
5:53 am 05:53 Partly Cloudy with Mist and Fog 64 17.8 63 17.2 96 96 N N/A 30.06 1018 6 10 N/A
6:53 am 06:53 Partly Cloudy 64 17.8 64 17.8 100 100 N N/A 30.07 1018 10 16 N/A
7:53 am 07:53 Mostly Sunny 70 21.1 65 18.3 84 84 S 7 11 30.09 1019 10 16 N/A
8:32 am 08:32 Mostly Cloudy with Nearby Thunderstorms 72 22.2 63 17.2 73 73 NW 8 13 30.15 1021 10 16 N/A
8:39 am 08:39 Mostly Cloudy with Thunderstorms 71 21.7 62 16.7 73 73 NNW 12 19 30.17 1022 10 16 N/A
8:50 am 08:50 Cloudy with Strong Thunderstorms 68 20 64 18 88 88 WNW 8 13 30.18 1022 2 3 0.09 2.29
8:53 am 08:53 Cloudy with Strong Thunderstorms 68 20 64 17.8 87 87 VRB 7 11 30.17 1022 1 2 0.11 2.79
9:02 am 09:02 Cloudy with Thunderstorms 68 20 64 17.8 87 87 WSW 6 9 30.18 1022 3 5 0.02 0.51
9:11 am 09:11 Cloudy with Nearby Thunderstorms 67 19.4 64 17.8 91 91 N N/A 30.19 1022 9 14 0.02 0.51
9:29 am 09:29 Cloudy with Light Rain 67 19.4 65 18.3 93 93 S 3 6 30.18 1022 4 6 0.05 1.27
9:53 am 09:53 Cloudy with Rain 67 19.4 65 18.3 93 93 S 6 9 30.17 1022 7 11 0.09 2.29
10:53 am 10:53 Mostly Cloudy 68 20 65 18.3 90 90 SSW 7 11 30.13 1020 10 16 N/A
11:42 am 11:42 Mostly Cloudy with Nearby Thunderstorms 69 20.6 66 18.9 90 90 SSW 12 19 30.14 1021 10 16 0.01 0.25
11:53 am 11:53 Mostly Cloudy 68 20 66 18.9 93 93 S 14 22 30.13 1020 10 16 0.01 0.25
12:53 pm 12:53 Mostly Sunny 71 21.7 67 19.4 87 87 SSW 7 11 30.11 1020 10 16 N/A
1:53 pm 13:53 Sunny 77 25 71 21.7 82 82 S 10 17 30.09 1019 10 16 N/A
2:53 pm 14:53 Partly Cloudy 83 28.3 71 21.7 67 67 SW 15 24 30.07 1018 10 16 N/A
3:53 pm 15:53 Mostly Cloudy 83 28.3 71 21.7 67 67 SW 18 30 30.04 1017 10 16 N/A
4:45 pm 16:45 Mostly Cloudy with Thunderstorms 82 27.8 70 21.1 67 67 SSW 16 26 30.00 1016 10 16 N/A
4:53 pm 16:53 Mostly Cloudy with Thunderstorms 81 27.2 71 21.7 72 72 SSW 16 26 30.02 1017 10 16 N/A
4:59 pm 16:59 Mostly Cloudy with Strong Thunderstorms 78 25.6 70 21.1 76 76 SW 32 52 30.03 1017 1 1 0.12 3.05
5:17 pm 17:17 Mostly Cloudy with Thunderstorms 73 22.8 69 20.6 87 87 SW 17 28 30.03 1017 2 3 0.38 9.65
5:22 pm 17:22 Cloudy with Nearby Thunderstorms 73 22.8 69 20.6 87 87 SW 14 22 30.04 1017 6 10 0.38 9.65
5:29 pm 17:29 Cloudy with Strong Thunderstorms 73 22.8 69 20.6 87 87 SW 13 20 30.03 1017 3 5 0.44 11.18
5:41 pm 17:41 Cloudy with Strong Thunderstorms 73 22.8 69 20.6 87 87 W 7 11 30.06 1018 1 1 0.67 17.02
5:50 pm 17:50 Cloudy with Thunderstorms 75 24 70 21 83 83 SW 7 11 30.06 1018 2 3 0.69 17.53
5:53 pm 17:53 Cloudy with Thunderstorms 76 24.4 71 21.7 85 85 SSW 7 11 30.06 1018 6 10 0.69 17.53
6:22 pm 18:22 Mostly Cloudy with Thunderstorms 72 22.2 68 20 87 87 SW 15 24 30.05 1018 2 3 0.08 2.03
6:24 pm 18:24 Mostly Cloudy with Nearby Thunderstorms 72 22.2 68 20 87 87 SSW 9 15 30.06 1018 3 5 0.12 3.05
6:31 pm 18:31 Mostly Cloudy with Thunderstorms 72 22.2 68 20 87 87 SW 14 22 30.06 1018 4 6 0.15 3.81
6:35 pm 18:35 Mostly Cloudy with Strong Thunderstorms 72 22.2 67 19.4 84 84 NNE 18 30 30.03 1017 1 1 0.34 8.64
6:44 pm 18:44 Mostly Cloudy with Thunderstorms 73 22.8 68 20 84 84 SSW 6 9 30.04 1017 2 3 0.34 8.64
6:48 pm 18:48 Mostly Cloudy 73 23 70 21 89 89 S 3 6 30.03 1017 10 16 0.34 8.64
6:53 pm 18:53 Mostly Cloudy with Nearby Thunderstorms 74 23.3 70 21.1 88 88 SSW 6 9 30.05 1018 10 16 0.34 8.64
7:09 pm 19:09 Mostly Cloudy with Thunderstorms 73 22.8 70 21.1 90 90 SW 12 19 30.05 1018 10 16 N/A
7:53 pm 19:53 Partly Cloudy 74 23.3 70 21.1 88 88 undefined N/A 30.05 1018 10 16 0.01 0.25
8:53 pm 20:53 Clear with Mist and Fog 70 21.1 69 20.6 97 97 SW 5 7 30.05 1018 6 10 N/A
9:53 pm 21:53 Clear 70 21.1 69 20.6 97 97 SW 3 6 30.06 1018 9 14 N/A
10:31 pm 22:31 Clear with Mist and Fog 68 20 67 19.4 96 96 N N/A 30.08 1019 2 3 N/A
10:40 pm 22:40 Clear with Mist and Fog 68 20 67 19.4 96 96 N N/A 30.08 1019 3 5 N/A
10:48 pm 22:48 Mostly Cloudy with Fog 68 20 66 19 94 94 N N/A 30.08 1019 1 1 N/A
10:51 pm 22:51 Mostly Cloudy with Fog 68 20 66 19 94 94 N N/A 30.08 1019 0 0 N/A
10:53 pm 22:53 Mostly Cloudy with Fog 68 20 67 19.4 96 96 N N/A 30.08 1019 0 0 N/A
11:02 pm 23:02 Mostly Cloudy with Fog 67 19.4 67 19.4 100 100 N N/A 30.08 1019 1 1 N/A
11:16 pm 23:16 Mostly Cloudy with Fog 67 19.4 67 19.4 100 100 N N/A 30.08 1019 1 1 N/A
11:29 pm 23:29 Mostly Cloudy with Fog 66 18.9 66 18.9 100 100 N N/A 30.08 1019 0 0 N/A
11:53 pm 23:53 Mostly Cloudy with Fog 66 18.9 66 18.9 100 100 N N/A 30.08 1019 0 0 N/A

Powered by AerisWeather